Waarnemingen

Advertentie
Mijn weer
Europlatform, Nederland (6321): temperatuur & dauwpunt: 20.09.2017 14:00:00 - 26.09.2017 14:00:00 (CEST)Europlatform, Nederland (6321): water temperatuur: 20.09.2017 14:00:00 - 26.09.2017 14:00:00 (CEST)Europlatform, Nederland (6321): windsnelheid & windstoten: 20.09.2017 14:00:00 - 26.09.2017 14:00:00 (CEST)Europlatform, Nederland (6321): windrichting: 20.09.2017 14:00:00 - 26.09.2017 14:00:00 (CEST)Europlatform, Nederland (6321): luchtdruk: 20.09.2017 14:00:00 - 26.09.2017 14:00:00 (CEST)Europlatform, Nederland (6321): zicht: 20.09.2017 14:00:00 - 26.09.2017 14:00:00 (CEST)
Datum & Tijd tt [°C] td [°C] tw [°C] ff [km/u] ff [kn] fx [km/u] fx [kn] dd ppp [hPa] vv [km]
26.09.2017 14:00:00 15,3 13,5 17,1 14 8 18 10 ONO 1022,7 4,4
26.09.2017 13:00:00 15,5 13,7 17,0 18 10 22 12 NO 1022,8 4,6
26.09.2017 12:00:00 16,2 13,5 17,1 14 8 18 10 NO 1022,8 7
26.09.2017 11:00:00 - - 17,1 14 8 - - ONO 1022,5 7
26.09.2017 10:00:00 16,2 14,2 17,1 18 10 22 12 NO 1022,1 7
26.09.2017 09:00:00 16,2 14,2 17,1 18 10 22 12 NO 1021,8 7
26.09.2017 08:00:00 16,1 14,2 17,1 14 8 18 10 NNO 1021,9 7
26.09.2017 07:00:00 16,0 14,0 17,1 14 8 14 8 NO 1021,6 6
26.09.2017 06:00:00 15,9 14,0 17,1 7 4 11 6 ONO 1021,4 7
26.09.2017 05:00:00 15,9 13,9 17,1 7 4 18 10 O 1021,3 7
26.09.2017 04:00:00 16,0 14,0 17,1 14 8 22 12 ONO 1021,2 7
26.09.2017 03:00:00 16,0 14,0 17,1 18 10 22 12 ONO 1021,2 7
26.09.2017 02:00:00 16,2 14,0 17,1 22 12 22 12 ONO 1021,4 7
26.09.2017 01:00:00 16,3 14,1 17,1 18 10 25 14 ONO 1021,6 6
26.09.2017 00:00:00 16,5 13,9 17,1 22 12 25 14 ONO 1021,7 8
25.09.2017 23:00:00 16,6 14,1 17,1 22 12 25 14 ONO 1021,6 8
25.09.2017 22:00:00 16,8 13,8 17,1 22 12 25 14 ONO 1021,4 10
25.09.2017 21:00:00 17,0 13,9 17,1 22 12 25 14 ONO 1021,3 11
25.09.2017 20:00:00 16,8 14,1 17,1 18 10 25 14 NO 1021,2 12
25.09.2017 19:00:00 16,5 13,5 17,1 18 10 22 12 NO 1021,0 13
25.09.2017 18:00:00 16,4 12,9 17,1 22 12 25 14 NO 1020,8 10
25.09.2017 17:00:00 16,1 13,0 17,1 22 12 25 14 NO 1020,7 12
25.09.2017 16:00:00 15,6 13,2 17,1 22 12 25 14 NO 1020,7 9
25.09.2017 15:00:00 15,5 13,0 17,1 18 10 22 12 ONO 1020,8 11
25.09.2017 14:00:00 15,2 12,9 17,1 18 10 25 14 ONO 1020,9 11
25.09.2017 13:00:00 15,0 12,9 17,1 22 12 29 16 ONO 1021,0 11
25.09.2017 12:00:00 14,8 13,1 17,1 25 14 29 16 ONO 1021,0 9
25.09.2017 11:00:00 15,3 13,2 17,1 22 12 29 16 ONO 1021,1 10
25.09.2017 10:00:00 15,0 13,3 17,1 25 14 29 16 O 1020,9 8
25.09.2017 09:00:00 15,2 13,4 17,1 25 14 29 16 O 1020,8 8
25.09.2017 08:00:00 15,2 13,2 17,1 25 14 32 18 O 1020,7 9
25.09.2017 07:00:00 15,6 13,2 17,1 25 14 29 16 O 1020,5 10
25.09.2017 06:00:00 16,0 12,9 17,1 25 14 29 16 O 1020,5 10
25.09.2017 05:00:00 16,0 12,5 17,1 25 14 32 18 O 1020,6 11
25.09.2017 04:00:00 16,4 12,2 17,1 25 14 32 18 O 1020,8 14
25.09.2017 03:00:00 16,5 12,6 17,1 29 16 32 18 O 1021,0 11
25.09.2017 02:00:00 16,8 12,9 17,1 29 16 36 19 O 1021,4 10
25.09.2017 01:00:00 17,0 13,3 17,1 25 14 36 19 O 1021,8 9
25.09.2017 00:00:00 17,1 13,7 17,1 25 14 36 19 O 1022,0 8
24.09.2017 23:00:00 17,3 13,9 17,1 29 16 36 19 O 1021,7 8
24.09.2017 22:00:00 17,5 14,0 17,1 25 14 32 18 O 1021,8 8
24.09.2017 21:00:00 18,0 13,7 17,1 22 12 25 14 O 1021,8 10
24.09.2017 20:00:00 17,9 13,7 17,1 18 10 25 14 O 1021,6 11
24.09.2017 19:00:00 18,1 13,0 17,1 22 12 25 14 O 1021,5 15
24.09.2017 18:00:00 17,8 13,7 17,1 18 10 22 12 O 1021,3 11
24.09.2017 17:00:00 17,6 13,3 17,1 18 10 22 12 O 1021,4 12
24.09.2017 16:00:00 17,6 12,4 17,1 22 12 25 14 O 1021,8 13
24.09.2017 15:00:00 17,1 12,9 17,1 22 12 25 14 O 1022,1 9
24.09.2017 14:00:00 16,5 13,1 17,1 22 12 25 14 O 1022,3 8
24.09.2017 13:00:00 15,7 13,0 17,1 25 14 32 18 O 1022,1 7
24.09.2017 12:00:00 15,2 13,1 17,1 25 14 25 14 O 1022,5 6
24.09.2017 11:00:00 15,2 12,7 17,1 22 12 29 16 OZO 1022,7 7
24.09.2017 10:00:00 15,2 12,4 17,1 25 14 29 16 O 1022,5 8
24.09.2017 09:00:00 15,0 12,0 17,1 22 12 25 14 O 1022,5 11
24.09.2017 08:00:00 15,2 12,4 17,1 22 12 25 14 O 1022,0 7
24.09.2017 07:00:00 15,2 11,7 17,1 18 10 25 14 O 1022,0 11
24.09.2017 06:00:00 15,3 11,1 17,1 18 10 22 12 O 1022,0 24
24.09.2017 05:00:00 15,4 10,7 17,1 18 10 25 14 O 1022,0 33
24.09.2017 04:00:00 15,6 10,3 17,1 18 10 25 14 O 1022,2 34
24.09.2017 03:00:00 15,7 10,2 17,1 18 10 25 14 OZO 1022,6 31
24.09.2017 02:00:00 15,7 9,5 17,1 22 12 29 16 O 1022,5 34
24.09.2017 01:00:00 15,9 9,7 17,1 22 12 25 14 O 1022,6 34
24.09.2017 00:00:00 16,2 10,1 17,1 22 12 25 14 O 1022,8 35
23.09.2017 23:00:00 16,2 11,3 17,1 18 10 25 14 O 1023,0 34
23.09.2017 22:00:00 16,1 11,1 17,1 18 10 22 12 ONO 1023,1 31
23.09.2017 21:00:00 16,0 11,2 17,1 14 8 18 10 ONO 1023,2 23
23.09.2017 20:00:00 16,1 10,5 17,1 14 8 18 10 ONO 1022,9 33
23.09.2017 19:00:00 15,9 10,5 17,1 11 6 14 8 O 1023,0 30
23.09.2017 18:00:00 15,6 10,2 17,1 11 6 14 8 O 1023,0 40
23.09.2017 17:00:00 15,5 9,7 17,1 7 4 11 6 O 1023,0 35
23.09.2017 16:00:00 15,2 11,3 17,1 7 4 11 6 O 1023,6 31
23.09.2017 15:00:00 15,4 11,4 17,1 7 4 - - ZO 1024,1 36
23.09.2017 14:00:00 15,6 11,2 17,1 11 6 14 8 ZZO 1024,2 41
23.09.2017 13:00:00 15,7 10,7 17,1 7 4 14 8 ZZO 1024,5 45
23.09.2017 12:00:00 15,5 11,1 17,1 11 6 14 8 Z 1024,5 46
23.09.2017 11:00:00 15,5 11,2 17,1 11 6 18 10 Z 1024,4 38
23.09.2017 10:00:00 15,7 10,9 17,1 11 6 14 8 Z 1024,2 43
23.09.2017 09:00:00 15,6 10,3 17,1 11 6 14 8 ZZW 1023,8 47
23.09.2017 08:00:00 15,7 10,5 17,1 11 6 14 8 ZZW 1023,9 49
23.09.2017 07:00:00 15,7 10,5 17,1 11 6 18 10 ZZW 1023,4 46
23.09.2017 06:00:00 15,7 11,1 17,1 14 8 18 10 Z 1023,2 46
23.09.2017 05:00:00 15,8 11,3 17,1 14 8 22 12 Z 1023,2 43
23.09.2017 04:00:00 15,9 10,7 17,1 18 10 22 12 ZZW 1023,5 45
23.09.2017 03:00:00 15,9 10,3 17,1 18 10 22 12 Z 1023,6 49
23.09.2017 02:00:00 15,6 10,8 17,1 18 10 22 12 Z 1023,6 48
23.09.2017 01:00:00 15,5 10,1 17,1 14 8 22 12 Z 1023,3 49
23.09.2017 00:00:00 15,5 9,7 17,1 14 8 18 10 ZZW 1023,4 49
22.09.2017 23:00:00 15,5 8,9 17,1 11 6 18 10 ZZW 1023,4 50
22.09.2017 22:00:00 15,3 8,8 17,1 7 4 11 6 ZZW 1023,0 49
22.09.2017 21:00:00 15,2 8,9 17,1 7 4 7 4 Z 1023,0 50
22.09.2017 20:00:00 15,3 8,6 17,1 4 2 14 8 ZZW 1022,7 49
22.09.2017 19:00:00 15,8 9,1 17,1 11 6 14 8 WZW 1022,4 50
22.09.2017 18:00:00 17,1 8,8 17,1 7 4 14 8 W 1021,9 47
22.09.2017 17:00:00 16,9 8,7 17,1 11 6 14 8 WNW 1021,7 48
22.09.2017 16:00:00 16,5 10,4 17,1 11 6 18 10 NW 1021,6 48
22.09.2017 15:00:00 16,5 11,1 17,1 14 8 18 10 NW 1021,4 46
22.09.2017 14:00:00 16,3 11,1 17,1 14 8 22 12 NW 1021,3 38
22.09.2017 13:00:00 16,0 11,1 17,1 18 10 22 12 NW 1021,0 43
22.09.2017 12:00:00 16,1 11,3 17,1 14 8 22 12 NW 1020,9 47
22.09.2017 11:00:00 15,7 11,8 17,1 14 8 22 12 NNW 1020,5 41
22.09.2017 10:00:00 15,7 12,3 17,1 18 10 25 14 NNW 1020,0 44
22.09.2017 09:00:00 15,6 12,5 17,1 22 12 25 14 NNW 1019,6 46
22.09.2017 08:00:00 15,7 13,0 17,1 18 10 25 14 NW 1019,3 23
22.09.2017 07:00:00 16,0 13,6 17,1 18 10 22 12 NW 1018,7 42
22.09.2017 06:00:00 16,5 14,0 17,1 11 6 14 8 W 1018,6 39
22.09.2017 05:00:00 16,2 12,4 17,1 11 6 18 10 W 1018,4 46
22.09.2017 04:00:00 16,6 13,3 17,1 14 8 25 14 W 1018,5 22
22.09.2017 03:00:00 17,1 13,9 17,1 22 12 25 14 ZZW 1018,4 20
22.09.2017 02:00:00 16,9 13,1 17,1 22 12 29 16 Z 1018,4 31
22.09.2017 01:00:00 17,1 12,7 17,1 25 14 32 18 Z 1018,1 38
22.09.2017 00:00:00 17,2 12,7 17,1 25 14 29 16 ZZO 1018,0 36
21.09.2017 23:00:00 17,4 12,4 17,1 25 14 29 16 ZZO 1018,0 38
21.09.2017 22:00:00 17,7 11,9 17,1 25 14 29 16 ZZO 1018,0 44
21.09.2017 21:00:00 17,6 12,6 17,1 22 12 29 16 ZZO 1018,1 45
21.09.2017 20:00:00 17,6 12,7 17,1 25 14 25 14 ZZO 1017,8 45
21.09.2017 19:00:00 17,6 12,4 17,1 22 12 25 14 ZZO 1017,5 46
21.09.2017 18:00:00 17,6 12,0 17,1 25 14 32 18 ZZO 1017,2 41
21.09.2017 17:00:00 17,4 12,0 17,1 25 14 32 18 ZZO 1017,1 35
21.09.2017 16:00:00 17,2 11,8 17,1 29 16 36 19 ZZO 1017,2 34
21.09.2017 15:00:00 16,9 11,5 17,1 29 16 36 19 ZZO 1017,4 30
21.09.2017 14:00:00 16,2 11,5 17,1 32 18 36 19 ZZO 1017,6 28
21.09.2017 13:00:00 15,9 11,0 17,1 32 18 40 21 ZZO 1017,9 28
21.09.2017 12:00:00 15,6 11,1 17,1 32 18 40 21 Z 1017,9 29
21.09.2017 11:00:00 15,3 11,3 17,1 32 18 40 21 Z 1018,0 30
21.09.2017 10:00:00 15,1 11,2 17,1 32 18 40 21 Z 1018,0 26
21.09.2017 09:00:00 14,9 12,0 17,1 32 18 40 21 ZZO 1017,8 20
21.09.2017 08:00:00 14,9 12,1 17,1 32 18 36 19 Z 1017,8 19
21.09.2017 07:00:00 15,0 12,1 17,1 32 18 36 19 Z 1017,5 23
21.09.2017 06:00:00 15,4 11,8 17,1 32 18 36 19 Z 1017,6 29
21.09.2017 05:00:00 15,5 11,9 17,1 29 16 36 19 Z 1017,9 26
21.09.2017 04:00:00 15,7 11,9 17,1 32 18 40 21 Z 1018,2 35
21.09.2017 03:00:00 15,8 12,1 17,1 32 18 36 19 Z 1018,3 26
21.09.2017 02:00:00 16,3 11,8 17,1 29 16 36 19 Z 1018,6 38
21.09.2017 01:00:00 16,2 12,4 17,1 29 16 36 19 Z 1018,6 30
21.09.2017 00:00:00 16,2 12,5 17,1 29 16 36 19 Z 1018,7 29
20.09.2017 23:00:00 16,6 12,4 17,1 29 16 36 19 ZZW 1018,8 33
20.09.2017 22:00:00 16,6 12,0 17,1 32 18 40 21 ZZW 1018,9 36
20.09.2017 21:00:00 16,4 12,6 17,1 32 18 40 21 ZZW 1019,0 39
20.09.2017 20:00:00 16,5 12,2 17,1 25 14 36 19 ZZW 1018,9 36
20.09.2017 19:00:00 16,1 13,3 17,1 32 18 40 21 ZZW 1018,7 31
20.09.2017 18:00:00 16,2 12,4 17,1 32 18 40 21 ZZW 1018,8 37
20.09.2017 17:00:00 16,3 11,7 17,1 32 18 36 19 ZZW 1019,1 42
20.09.2017 16:00:00 16,1 11,0 17,1 29 16 36 19 ZZW 1019,3 41
20.09.2017 15:00:00 15,9 11,8 17,1 32 18 40 21 ZZW 1019,6 42
20.09.2017 14:00:00 15,8 11,8 17,1 29 16 36 19 ZZW 1019,7 46

tt = temperatuur
td = dauwpunt
tw = water temperatuur
ff = windsnelheid
fx = windstoten
dd = windrichting
ppp = luchtdruk
vv = zicht

Weerstations in de omgeving